Volver al catálogo

STARLINK-11616

ActivoComunicacionesVLEO
NORAD 63137·PAYLOAD·🇺🇸 United States

Lanzado Mar 3, 2025 desde Cape Canaveral Space Force Station

Loading…

Próximos Pases (próximas 24 horas)

TLE

ActualizadoSource: CelesTrak SupGP

Época: Sep 14, 2026, 20:54 UTC

1 63137C 25043F   26257.87131944  .00047554  00000+0  36932-3 0  2570
2 63137  43.0004 190.0605 0001513 255.6493 304.1541 15.70816703    15

Sigue STARLINK-11616 en tiempo real con AllMySat

Download on the App Store